| time (UTC) | temp F | wind direction | speed MPH | gust MPH | rain 1hr in | rain 24hr in | rain mn in | humidity % | barometer mb |
| 20260507051544 | 54 | 0 | 0.0 | 1.0 | 0.00 | 0.00 | 0.00 | 84 | 1021.8 |
| 20260507050043 | 54 | 0 | 0.0 | 3.0 | 0.00 | 0.00 | 0.00 | 83 | 1021.7 |
| 20260507044555 | 54 | 0 | 1.0 | 7.0 | 0.00 | 0.00 | 0.00 | 82 | 1021.6 |
| 20260507043100 | 54 | 271 | 1.0 | 8.0 | 0.00 | 0.00 | 0.00 | 82 | 1021.4 |
| 20260507041549 | 54 | 0 | 0.0 | 2.0 | 0.00 | 0.00 | 0.00 | 83 | 1021.5 |
| 20260507040045 | 54 | 0 | 0.0 | 2.0 | 0.00 | 0.00 | 0.00 | 83 | 1021.5 |
| 20260507034544 | 55 | 0 | 0.0 | 2.0 | 0.00 | 0.00 | 0.00 | 81 | 1021.2 |
| 20260507033048 | 56 | 299 | 0.0 | 2.0 | 0.00 | 0.00 | 0.00 | 79 | 1021.0 |
| 20260507031549 | 58 | 263 | 0.0 | 8.0 | 0.00 | 0.00 | 0.00 | 77 | 1020.5 |
| 20260507030045 | 59 | 229 | 1.0 | 6.0 | 0.00 | 0.00 | 0.00 | 75 | 1020.5 |
| 20260507024551 | 60 | 287 | 2.0 | 5.0 | 0.00 | 0.00 | 0.00 | 74 | 1020.4 |
| 20260507023052 | 62 | 221 | 1.0 | 6.0 | 0.00 | 0.00 | 0.00 | 71 | 1020.2 |
| 20260507021541 | 62 | 284 | 2.0 | 11.0 | 0.00 | 0.00 | 0.00 | 72 | 1020.5 |
| 20260507020051 | 63 | 286 | 3.0 | 9.0 | 0.00 | 0.00 | 0.00 | 70 | 1020.6 |
| 20260507014546 | 64 | 300 | 3.0 | 9.0 | 0.00 | 0.00 | 0.00 | 68 | 1020.6 |
| 20260507013045 | 65 | 272 | 2.0 | 9.0 | 0.00 | 0.00 | 0.00 | 68 | 1020.4 |
| 20260507011547 | 66 | 196 | 4.0 | 10.0 | 0.00 | 0.00 | 0.00 | 66 | 1020.5 |
| 20260507010046 | 66 | 284 | 2.0 | 15.0 | 0.00 | 0.00 | 0.00 | 66 | 1020.6 |
| 20260507004544 | 68 | 162 | 1.0 | 8.0 | 0.00 | 0.00 | 0.00 | 66 | 1020.6 |
| 20260507003045 | 67 | 0 | 2.0 | 13.0 | 0.00 | 0.00 | 0.00 | 68 | 1020.6 |
| 20260507001608 | 68 | 292 | 1.0 | 10.0 | 0.00 | 0.00 | 0.00 | 66 | 1020.6 |
| 20260507000052 | 67 | 255 | 5.0 | 11.0 | 0.00 | 0.00 | 0.00 | 66 | 1020.6 |
| 20260506234554 | 68 | 265 | 6.0 | 13.0 | 0.00 | 0.00 | 0.00 | 65 | 1020.5 |
| 20260506233050 | 69 | 287 | 1.0 | 8.0 | 0.00 | 0.00 | 0.00 | 64 | 1020.5 |
| 20260506231549 | 69 | 291 | 4.0 | 10.0 | 0.00 | 0.00 | 0.00 | 64 | 1020.5 |
| 20260506230104 | 70 | 295 | 2.0 | 8.0 | 0.00 | 0.00 | 0.00 | 65 | 1020.5 |
| 20260506224548 | 70 | 313 | 3.0 | 9.0 | 0.00 | 0.00 | 0.00 | 63 | 1020.6 |
| 20260506223049 | 71 | 292 | 1.0 | 9.0 | 0.00 | 0.00 | 0.00 | 64 | 1020.7 |
| 20260506221603 | 70 | 77 | 3.0 | 8.0 | 0.00 | 0.00 | 0.00 | 63 | 1020.7 |
| 20260506220044 | 69 | 262 | 0.0 | 6.0 | 0.00 | 0.00 | 0.00 | 66 | 1020.7 |
| 20260506214555 | 70 | 181 | 3.0 | 7.0 | 0.00 | 0.00 | 0.00 | 65 | 1020.7 |
| 20260506213050 | 68 | 227 | 1.0 | 8.0 | 0.00 | 0.00 | 0.00 | 66 | 1020.9 |
| 20260506211548 | 68 | 0 | 2.0 | 8.0 | 0.00 | 0.00 | 0.00 | 66 | 1020.8 |
| 20260506210054 | 68 | 213 | 3.0 | 8.0 | 0.00 | 0.00 | 0.00 | 67 | 1020.7 |
| 20260506204546 | 67 | 228 | 1.0 | 6.0 | 0.00 | 0.00 | 0.00 | 69 | 1021.0 |
| 20260506203044 | 68 | 209 | 1.0 | 6.0 | 0.00 | 0.00 | 0.00 | 68 | 1021.3 |
| 20260506201545 | 66 | 253 | 1.0 | 4.0 | 0.00 | 0.00 | 0.00 | 71 | 1021.3 |
| 20260506200044 | 66 | 0 | 1.0 | 6.0 | 0.00 | 0.00 | 0.00 | 70 | 1021.3 |
| 20260506194543 | 66 | 247 | 1.0 | 9.0 | 0.00 | 0.00 | 0.00 | 71 | 1021.3 |
| 20260506193050 | 65 | 209 | 2.0 | 9.0 | 0.00 | 0.00 | 0.00 | 72 | 1021.4 |
| 20260506191548 | 65 | 219 | 3.0 | 11.0 | 0.00 | 0.00 | 0.00 | 72 | 1021.4 |
| 20260506190050 | 64 | 192 | 3.0 | 12.0 | 0.00 | 0.00 | 0.00 | 74 | 1021.3 |
| 20260506184553 | 63 | 161 | 1.0 | 8.0 | 0.00 | 0.00 | 0.00 | 77 | 1021.4 |
| 20260506183045 | 62 | 194 | 3.0 | 7.0 | 0.00 | 0.00 | 0.00 | 77 | 1021.6 |
| 20260506181554 | 61 | 210 | 2.0 | 7.0 | 0.00 | 0.00 | 0.00 | 79 | 1021.5 |
| 20260506180045 | 61 | 180 | 1.0 | 7.0 | 0.00 | 0.00 | 0.00 | 80 | 1021.6 |
| 20260506174604 | 60 | 223 | 2.0 | 10.0 | 0.00 | 0.00 | 0.00 | 80 | 1021.2 |
| 20260506173059 | 59 | 242 | 0.0 | 3.0 | 0.00 | 0.00 | 0.00 | 82 | 1021.2 |
| 20260506171551 | 58 | 206 | 1.0 | 6.0 | 0.00 | 0.00 | 0.00 | 82 | 1021.4 |
| 20260506170104 | 58 | 287 | 2.0 | 6.0 | 0.00 | 0.00 | 0.00 | 81 | 1021.1 |
| 20260506164555 | 57 | 211 | 1.0 | 7.0 | 0.00 | 0.00 | 0.00 | 83 | 1021.4 |
| 20260506163056 | 57 | 0 | 1.0 | 5.0 | 0.00 | 0.00 | 0.00 | 83 | 1021.5 |
| 20260506161553 | 57 | 183 | 1.0 | 6.0 | 0.00 | 0.00 | 0.00 | 83 | 1021.3 |
| 20260506154556 | 56 | 182 | 3.0 | 6.0 | 0.00 | 0.00 | 0.00 | 84 | 1020.8 |
| 20260506153047 | 55 | 0 | 0.0 | 2.0 | 0.00 | 0.00 | 0.00 | 86 | 1021.3 |
| 20260506151554 | 54 | 0 | 0.0 | 4.0 | 0.00 | 0.00 | 0.00 | 88 | 1021.6 |
| 20260506150100 | 54 | 0 | 2.0 | 8.0 | 0.00 | 0.00 | 0.00 | 89 | 1021.5 |
| 20260506144544 | 54 | 236 | 1.0 | 8.0 | 0.00 | 0.00 | 0.00 | 89 | 1021.6 |
| 20260506143046 | 54 | 269 | 1.0 | 7.0 | 0.00 | 0.00 | 0.00 | 88 | 1020.9 |
| 20260506141550 | 54 | 227 | 1.0 | 8.0 | 0.00 | 0.00 | 0.00 | 87 | 1020.6 |
| 20260506140051 | 54 | 223 | 0.0 | 1.0 | 0.00 | 0.00 | 0.00 | 88 | 1020.2 |
| 20260506134556 | 54 | 0 | 0.0 | 0.0 | 0.00 | 0.00 | 0.00 | 89 | 1020.2 |
| 20260506133104 | 54 | 0 | 0.0 | 0.0 | 0.00 | 0.00 | 0.00 | 90 | 1020.2 |
| 20260506131553 | 54 | 0 | 0.0 | 0.0 | 0.00 | 0.00 | 0.00 | 90 | 1020.2 |
| 20260506130051 | 54 | 0 | 0.0 | 0.0 | 0.00 | 0.00 | 0.00 | 90 | 1020.0 |
| 20260506124550 | 54 | 0 | 0.0 | 0.0 | 0.00 | 0.00 | 0.00 | 90 | 1019.9 |
| 20260506123045 | 54 | 0 | 0.0 | 0.0 | 0.00 | 0.00 | 0.00 | 90 | 1019.9 |
| 20260506121554 | 54 | 0 | 0.0 | 0.0 | 0.00 | 0.00 | 0.00 | 91 | 1019.9 |
| 20260506114551 | 54 | 0 | 0.0 | 0.0 | 0.00 | 0.00 | 0.00 | 91 | 1019.5 |
| 20260506113045 | 54 | 0 | 0.0 | 0.0 | 0.00 | 0.00 | 0.00 | 91 | 1019.3 |
| 20260506111548 | 54 | 0 | 0.0 | 0.0 | 0.00 | 0.00 | 0.00 | 91 | 1019.1 |
| 20260506110101 | 54 | 0 | 0.0 | 1.0 | 0.00 | 0.00 | 0.00 | 91 | 1018.8 |
| 20260506104558 | 53 | 0 | 0.0 | 0.0 | 0.00 | 0.00 | 0.00 | 91 | 1018.7 |
| 20260506103048 | 53 | 0 | 0.0 | 0.0 | 0.00 | 0.00 | 0.00 | 91 | 1018.5 |
| 20260506101544 | 53 | 0 | 0.0 | 0.0 | 0.00 | 0.00 | 0.00 | 91 | 1018.4 |
| 20260506100053 | 53 | 0 | 0.0 | 1.0 | 0.00 | 0.00 | 0.00 | 91 | 1018.5 |
| 20260506094544 | 53 | 219 | 0.0 | 0.0 | 0.00 | 0.00 | 0.00 | 90 | 1018.3 |
| 20260506093046 | 53 | 0 | 0.0 | 1.0 | 0.00 | 0.00 | 0.00 | 89 | 1018.2 |
| 20260506091549 | 54 | 0 | 0.0 | 1.0 | 0.00 | 0.00 | 0.00 | 89 | 1018.1 |
| 20260506090048 | 55 | 0 | 0.0 | 0.0 | 0.00 | 0.00 | 0.00 | 89 | 1018.1 |
| 20260506084616 | 55 | 0 | 0.0 | 1.0 | 0.00 | 0.00 | 0.00 | 88 | 1017.9 |
| 20260506083045 | 56 | 0 | 0.0 | 0.0 | 0.00 | 0.00 | 0.00 | 87 | 1017.9 |
| 20260506081554 | 56 | 0 | 0.0 | 0.0 | 0.00 | 0.00 | 0.00 | 87 | 1017.9 |
| 20260506073047 | 56 | 0 | 0.0 | 0.0 | 0.00 | 0.00 | 0.00 | 87 | 1017.8 |
| 20260506071548 | 56 | 0 | 0.0 | 0.0 | 0.00 | 0.00 | 0.00 | 86 | 1017.7 |
| 20260506061543 | 57 | 0 | 0.0 | 0.0 | 0.00 | 0.00 | 0.00 | 86 | 1017.5 |